[[{"header":{"parameterUnit":"m.s-1","parameterCategory":1,"la1":30.2991,"la2":30.254,"lo1":-89.0895,"lo2":-89.0444,"dy":0.0017,"dx":0.0017,"nx":28,"ny":28,"refTime":"2025-03-07T09:00:00:Z","depth":0,"parameterNumber":2,"parameterNumberName":"U-component_of_WINDS"},"data":[0,0,0,0,0,0,0,0,0,0,0,0,0,0,0,0,0,0,0,0,0,0,0,0,0,0,0,0,0,0,0,0,0,0,0,0,0,0,0,0,0,0,0,0,0,0,0,0,0,0,0,0,0,0,0,0,0,0,-1.4429,-1.4429,0,-1.4381,-1.438,-1.438,-1.4339,-1.4338,-1.4338,-1.4337,-1.4287,-1.4287,-1.4286,0,0,0,0,0,0,0,0,0,0,0,0,0,-1.4486,-1.4486,-1.4429,-1.4429,-1.4428,-1.4381,-1.438,-1.4379,-1.4339,-1.4338,-1.4338,-1.4337,-1.4288,-1.4287,-1.4286,0,0,0,0,0,0,0,0,0,0,0,0,0,-1.4452,-1.4485,-1.4429,-1.4402,-1.4399,-1.4381,-1.438,-1.4379,-1.4339,-1.4338,-1.4337,-1.4337,-1.4288,-1.4287,-1.4285,-1.4291,0,0,-1.4281,-1.4281,0,0,0,0,0,0,0,0,-1.4454,-1.445,-1.4407,-1.4404,-1.4401,-1.4365,-1.4382,-1.435,-1.4339,-1.4362,-1.4337,-1.4336,-1.4314,-1.431,-1.4303,-1.4288,-1.4286,-1.4281,-1.428,-1.428,-1.4279,0,0,0,0,0,0,0,-1.4457,-1.4452,-1.441,-1.4406,-1.4402,-1.4392,-1.4386,-1.4376,-1.4342,-1.436,-1.4357,-1.4351,-1.4312,-1.4304,-1.4301,-1.4285,-1.4281,-1.428,-1.4279,-1.4279,-1.4271,-1.4272,0,0,0,0,0,0,-1.4463,-1.4454,-1.4412,-1.4409,-1.4426,-1.4392,-1.4385,-1.4377,-1.4342,-1.4336,-1.4352,-1.435,-1.4307,-1.4303,-1.4299,-1.4302,-1.428,-1.4278,-1.4278,-1.4271,-1.4271,-1.4272,0,0,0,0,0,0,-1.4465,-1.446,-1.4414,-1.4431,-1.4424,-1.4391,-1.4382,-1.4377,-1.4368,-1.4336,-1.433,-1.435,-1.4306,-1.4301,-1.4293,-1.4299,-1.4278,-1.4277,-1.427,-1.4271,-1.4272,-1.4307,0,0,0,0,0,0,-1.4466,-1.4461,-1.4462,-1.4431,-1.4423,-1.4408,-1.4383,-1.4376,-1.4366,-1.4363,-1.4333,-1.4327,-1.4305,-1.4295,-1.4291,-1.4297,-1.4276,-1.4269,-1.427,-1.4271,-1.4306,-1.431,-1.4313,0,0,0,0,0,-1.4469,-1.4475,-1.4463,-1.4458,-1.4425,-1.4409,-1.4404,-1.4379,-1.4367,-1.4368,-1.4347,-1.4328,-1.43,-1.4294,-1.429,-1.4296,-1.4269,-1.427,-1.4271,-1.4304,-1.4309,-1.4313,0,0,0,0,0,0,-1.4508,-1.447,-1.4456,-1.4452,-1.4434,-1.4402,-1.4402,-1.4385,-1.4369,-1.4367,-1.4336,-1.4329,-1.4324,-1.4309,-1.4304,-1.4298,-1.4281,-1.4282,-1.4308,-1.4312,-1.4316,-1.4319,-1.4274,0,0,0,0,0,-1.4516,-1.4506,-1.4474,-1.4473,-1.4465,-1.4435,-1.4427,-1.4409,-1.4389,-1.4381,-1.436,-1.4341,-1.4327,-1.4319,-1.4305,-1.4304,-1.4296,-1.4305,-1.4309,-1.4312,-1.4313,-1.431,-1.4313,-1.4277,-1.4277,-1.4277,0,0,-1.4533,-1.4511,-1.4506,-1.4481,-1.4464,-1.4454,-1.4429,-1.442,-1.4412,-1.438,-1.437,-1.4354,-1.433,-1.4325,-1.4322,-1.4313,-1.4321,-1.4314,-1.4317,-1.4315,-1.4311,-1.4315,-1.4318,-1.4278,-1.4277,-1.4277,0,0,-1.4558,-1.4541,-1.4538,-1.4522,-1.4497,-1.4478,-1.4477,-1.4447,-1.4435,-1.4425,-1.44,-1.4391,-1.4369,-1.4352,-1.4342,-1.436,-1.4342,-1.4357,-1.4376,-1.4373,-1.4376,-1.4378,-1.4384,-1.4386,-1.4358,-1.4358,-1.4358,0,-1.4582,-1.4566,-1.4539,-1.4531,-1.452,-1.449,-1.4486,-1.4472,-1.4445,-1.4437,-1.4428,-1.4399,-1.4381,-1.4371,-1.4375,-1.4368,-1.4366,-1.4359,-1.4378,-1.438,-1.4382,-1.4386,-1.4389,-1.436,-1.4359,-1.4359,-1.4359,0,-1.4596,-1.4585,-1.4586,-1.4559,-1.4548,-1.4543,-1.4515,-1.4507,-1.449,-1.4471,-1.4461,-1.4439,-1.4419,-1.4416,-1.4399,-1.4403,-1.4398,-1.4384,-1.4366,-1.4387,-1.4391,-1.4393,-1.4362,-1.4362,-1.4361,-1.4361,0,0,-1.4644,-1.4602,-1.4603,-1.459,-1.456,-1.4551,-1.4545,-1.4525,-1.4519,-1.4501,-1.4493,-1.4475,-1.4461,-1.4449,-1.443,-1.4428,-1.4443,-1.4414,-1.4413,-1.4419,-1.4445,-1.4455,-1.4457,-1.4431,-1.4431,-1.4431,-1.4446,0,-1.4663,-1.4648,-1.4624,-1.4617,-1.4606,-1.4578,-1.4571,-1.4552,-1.4535,-1.4523,-1.4504,-1.4491,-1.4474,-1.4466,-1.4463,-1.4442,-1.4447,-1.4441,-1.4423,-1.4423,-1.4428,-1.446,-1.447,-1.4485,-1.4448,-1.4448,-1.4448,0,-1.4684,-1.4667,-1.4659,-1.4629,-1.4624,-1.4619,-1.4598,-1.4588,-1.4566,-1.4553,-1.4539,-1.4518,-1.4509,-1.4494,-1.448,-1.4476,-1.4467,-1.4456,-1.4456,-1.4452,-1.4436,-1.4456,-1.449,-1.4492,-1.4451,-1.445,-1.445,0,-1.4718,-1.4693,-1.4685,-1.4675,-1.4641,-1.4638,-1.4623,-1.46,-1.459,-1.4572,-1.4565,-1.4547,-1.4537,-1.4523,-1.4498,-1.449,-1.4487,-1.447,-1.4475,-1.4476,-1.4475,-1.4475,-1.4507,-1.4472,-1.4472,-1.4472,-1.4471,0,-1.4742,-1.4738,-1.47,-1.4695,-1.4689,-1.4661,-1.4656,-1.4639,-1.4619,-1.4609,-1.4584,-1.4576,-1.4544,-1.4532,-1.4512,-1.4503,-1.4499,-1.4488,-1.4482,-1.4489,-1.4491,-1.4482,-1.448,-1.4472,-1.4472,-1.4472,-1.4472,0,-1.4779,-1.4753,-1.4742,-1.471,-1.4702,-1.4699,-1.4672,-1.4666,-1.4647,-1.4635,-1.4631,-1.4601,-1.4585,-1.4559,-1.4536,-1.4523,-1.4517,-1.4509,-1.4524,-1.4521,-1.4527,-1.4526,-1.4554,-1.4555,-1.452,-1.4521,-1.4521,0,-1.4795,-1.4791,-1.4759,-1.475,-1.4737,-1.4724,-1.4713,-1.4685,-1.4675,-1.4649,-1.4645,-1.4628,-1.4612,-1.4589,-1.4564,-1.4547,-1.4537,-1.4548,-1.4534,-1.4541,-1.4535,-1.4536,-1.4534,-1.4551,-1.4551,-1.4552,-1.4552,0,-1.4826,-1.4813,-1.4799,-1.4779,-1.4767,-1.4751,-1.4733,-1.4728,-1.4696,-1.4685,-1.4669,-1.4657,-1.4633,-1.4615,-1.4594,-1.4579,-1.456,-1.4557,-1.4556,-1.4563,-1.4572,-1.4566,-1.4531,-1.4556,-1.4555,-1.4555,-1.4555,-1.4555,-1.4852,-1.4847,-1.4823,-1.4807,-1.4791,-1.4775,-1.4767,-1.4746,-1.4732,-1.471,-1.4695,-1.4679,-1.4656,-1.4625,-1.4611,-1.4598,-1.459,-1.459,-1.459,-1.459,-1.4592,-1.4575,-1.4594,-1.4594,-1.4594,-1.4594,-1.4594,0,-1.4881,-1.4864,-1.485,-1.4825,-1.4813,-1.4796,-1.4775,-1.4766,-1.4752,-1.4733,-1.4717,-1.4698,-1.4681,-1.4655,-1.4636,-1.4631,-1.4621,-1.4626,-1.4626,-1.4622,-1.4602,-1.4603,-1.4634,-1.4634,-1.4634,-1.4634,-1.4634,-1.4634,-1.4894,-1.4884,-1.4869,-1.485,-1.4833,-1.4817,-1.4806,-1.4791,-1.4775,-1.4754,-1.474,-1.4723,-1.4701,-1.468,-1.4663,-1.4656,-1.4649,-1.4657,-1.4647,-1.4628,-1.4624,-1.4621,-1.4621,-1.4656,-1.4656,-1.4668,-1.4669,-1.4669]},{"header":{"parameterUnit":"m.s-1","parameterCategory":1,"la1":30.2991,"la2":30.254,"lo1":-89.0895,"lo2":-89.0444,"dy":0.0017,"dx":0.0017,"nx":28,"ny":28,"refTime":"2025-03-07T09:00:00:Z","depth":0,"parameterNumber":3,"parameterNumberName":"V-component_of_WINDS"},"data":[0,0,0,0,0,0,0,0,0,0,0,0,0,0,0,0,0,0,0,0,0,0,0,0,0,0,0,0,0,0,0,0,0,0,0,0,0,0,0,0,0,0,0,0,0,0,0,0,0,0,0,0,0,0,0,0,0,0,3.5323,3.5323,0,3.5366,3.5367,3.5367,3.5339,3.5338,3.5337,3.5336,3.5377,3.538,3.5382,0,0,0,0,0,0,0,0,0,0,0,0,0,3.5214,3.5216,3.5323,3.5323,3.5324,3.5366,3.5367,3.5367,3.534,3.5338,3.5337,3.5335,3.5377,3.5379,3.5382,0,0,0,0,0,0,0,0,0,0,0,0,0,3.5259,3.5217,3.5323,3.5315,3.5315,3.5366,3.5367,3.5368,3.534,3.5338,3.5336,3.5334,3.5376,3.5379,3.5383,3.5443,0,0,3.5393,3.5395,0,0,0,0,0,0,0,0,3.5257,3.5263,3.5316,3.5316,3.5316,3.5346,3.5344,3.5393,3.5341,3.533,3.5336,3.5333,3.5368,3.5372,3.5384,3.5445,3.5446,3.5393,3.5396,3.5397,3.5398,0,0,0,0,0,0,0,3.5254,3.5261,3.534,3.5316,3.5316,3.5309,3.5313,3.5353,3.5359,3.5331,3.5329,3.5335,3.5368,3.5381,3.5385,3.5447,3.5393,3.5396,3.5399,3.54,3.5562,3.5564,0,0,0,0,0,0,3.5252,3.5259,3.5338,3.5341,3.5281,3.5313,3.5318,3.5338,3.5359,3.536,3.5337,3.5333,3.5376,3.5381,3.5387,3.5461,3.5397,3.54,3.5402,3.556,3.5562,3.5565,0,0,0,0,0,0,3.5249,3.5259,3.5337,3.53,3.5309,3.5317,3.534,3.534,3.5353,3.5363,3.5364,3.5349,3.5375,3.5382,3.543,3.5462,3.5402,3.5405,3.5557,3.5561,3.5564,3.5609,0,0,0,0,0,0,3.5246,3.5258,3.5281,3.53,3.5311,3.538,3.5342,3.5342,3.536,3.5356,3.5375,3.5377,3.5374,3.5425,3.5433,3.5466,3.5408,3.5554,3.5559,3.5563,3.5605,3.5614,3.5621,0,0,0,0,0,3.5242,3.5291,3.5283,3.5292,3.534,3.5382,3.5388,3.5385,3.5362,3.5386,3.5393,3.5376,3.5457,3.543,3.5439,3.5473,3.5552,3.5557,3.5562,3.5601,3.5612,3.5621,0,0,0,0,0,0,3.5273,3.5293,3.5284,3.534,3.536,3.5377,3.5406,3.5395,3.5421,3.5416,3.541,3.5415,3.5466,3.5474,3.5444,3.5534,3.5501,3.5508,3.5527,3.5538,3.5546,3.5544,3.5411,0,0,0,0,0,3.5287,3.532,3.5335,3.5383,3.5393,3.5398,3.5416,3.5412,3.5432,3.5439,3.5449,3.5468,3.5498,3.5518,3.5546,3.5605,3.561,3.5633,3.5641,3.5648,3.5655,3.569,3.5701,3.5581,3.5581,3.5581,0,0,3.5315,3.533,3.5351,3.539,3.5404,3.5439,3.5405,3.5442,3.5468,3.5444,3.5492,3.55,3.5521,3.5576,3.56,3.5584,3.5689,3.5655,3.566,3.5663,3.5696,3.5708,3.5718,3.5585,3.5584,3.5584,0,0,3.5385,3.5398,3.5442,3.5458,3.5481,3.5484,3.5495,3.5514,3.552,3.5567,3.5552,3.5581,3.5632,3.5649,3.5663,3.5742,3.5729,3.5751,3.5794,3.5828,3.5838,3.5846,3.5877,3.5888,3.5757,3.5757,3.5757,0,3.5416,3.5468,3.5465,3.5504,3.5523,3.5505,3.555,3.5565,3.5595,3.5608,3.559,3.5656,3.5668,3.5728,3.5748,3.5759,3.5772,3.5749,3.5837,3.5845,3.5853,3.5883,3.5894,3.576,3.576,3.5759,3.5759,0,3.5508,3.5544,3.5576,3.5609,3.563,3.5672,3.5675,3.5697,3.5692,3.5697,3.5747,3.5762,3.5794,3.5807,3.5801,3.5867,3.5857,3.5838,3.5805,3.5868,3.5895,3.5906,3.5764,3.5763,3.5762,3.5761,0,0,3.5597,3.563,3.5642,3.5658,3.5684,3.5711,3.5752,3.5785,3.5806,3.5828,3.5863,3.5908,3.5891,3.5908,3.5904,3.5934,3.5999,3.5911,3.5912,3.5929,3.6076,3.6093,3.6106,3.599,3.5992,3.5993,3.6076,0,3.5671,3.5745,3.5744,3.5812,3.5847,3.5832,3.5868,3.5887,3.5894,3.5924,3.593,3.5964,3.5937,3.5948,3.5977,3.5985,3.6029,3.5979,3.6024,3.6025,3.6022,3.612,3.6136,3.6214,3.6086,3.6088,3.6089,0,3.5766,3.5794,3.5867,3.589,3.5905,3.5937,3.5969,3.5998,3.602,3.6023,3.6044,3.6035,3.6078,3.6042,3.6102,3.6068,3.6086,3.6093,3.6096,3.6102,3.6063,3.6131,3.6238,3.625,3.6105,3.6104,3.6103,0,3.5828,3.5884,3.5935,3.5949,3.5977,3.6001,3.6013,3.6034,3.6055,3.6082,3.6096,3.6126,3.6144,3.6168,3.6169,3.6143,3.623,3.6194,3.6235,3.6235,3.6255,3.6255,3.637,3.6263,3.6263,3.6262,3.6262,0,3.5912,3.5957,3.5964,3.5996,3.6048,3.6046,3.6097,3.6106,3.6125,3.6159,3.6146,3.6178,3.6176,3.6208,3.6209,3.626,3.6267,3.6271,3.6271,3.6274,3.6274,3.6287,3.6283,3.6265,3.6265,3.6264,3.6264,0,3.599,3.5997,3.6053,3.6075,3.6082,3.6119,3.6138,3.6169,3.6175,3.6218,3.6228,3.6237,3.6275,3.6278,3.632,3.6321,3.6384,3.6376,3.6377,3.6377,3.6418,3.6416,3.6548,3.6567,3.6445,3.6446,3.6447,0,3.6045,3.608,3.6108,3.613,3.6145,3.6181,3.6203,3.6203,3.6226,3.6256,3.6284,3.6321,3.635,3.6411,3.6422,3.6455,3.645,3.6494,3.6455,3.6458,3.6455,3.6454,3.6459,3.6503,3.6504,3.6505,3.6506,0,3.6141,3.6143,3.6176,3.6212,3.6239,3.6266,3.6291,3.631,3.6313,3.634,3.638,3.6403,3.6449,3.6486,3.652,3.6532,3.6521,3.6518,3.653,3.6535,3.6535,3.6539,3.6401,3.6515,3.6515,3.6514,3.6513,3.6513,3.6211,3.6243,3.6269,3.6307,3.6327,3.6351,3.6383,3.6393,3.6427,3.6465,3.6462,3.6507,3.653,3.6574,3.6589,3.6624,3.6609,3.6625,3.663,3.6635,3.6641,3.6527,3.6629,3.6629,3.6629,3.6629,3.6628,0,3.631,3.6326,3.6361,3.6399,3.6429,3.6416,3.6444,3.6471,3.6511,3.6534,3.6564,3.6611,3.6648,3.6662,3.6698,3.6724,3.672,3.6733,3.6733,3.6737,3.665,3.6638,3.6736,3.6736,3.6736,3.6736,3.6736,3.6736,3.6365,3.642,3.6426,3.649,3.6506,3.6551,3.6569,3.6592,3.6611,3.6664,3.6696,3.6705,3.6725,3.6763,3.6797,3.68,3.6815,3.6832,3.6833,3.6753,3.6742,3.6732,3.6721,3.6834,3.6835,3.6917,3.6918,3.6918]}]]